This is the latest recevied weather packets stored in our database for station/object OE5MMP-13. If no packets are shown the sender has not sent any weather packets the latest 10 day(s).
| Time | Temp. | Humidity | Pressure | Rain* | Wind** | Luminosity | Snow |
|---|---|---|---|---|---|---|---|
| 1788535993 | 30° C | 36% | 1016 hPa | 0 mm | - | 276 W/m² | - |
| 1788535394 | 30° C | 36% | 1016.2 hPa | 0 mm | - | 302 W/m² | - |
| 1788534794 | 29.44° C | 37% | 1016.2 hPa | 0 mm | - | 331 W/m² | - |
| 1788534193 | 29.44° C | 37% | 1016.3 hPa | 0 mm | - | 344 W/m² | - |
| 1788533593 | 29.44° C | 36% | 1016.4 hPa | 0 mm | - | 385 W/m² | - |
| 1788532993 | 29.44° C | 37% | 1016.5 hPa | 0 mm | - | 400 W/m² | - |
| 1788532393 | 29.44° C | 37% | 1016.7 hPa | 0 mm | - | 425 W/m² | - |
| 1788531793 | 29.44° C | 37% | 1016.7 hPa | 0 mm | - | 460 W/m² | - |
| 1788531193 | 29.44° C | 36% | 1016.9 hPa | 0 mm | - | 489 W/m² | - |
| 1788530594 | 28.89° C | 37% | 1016.9 hPa | 0 mm | - | 456 W/m² | - |
| 1788529993 | 28.89° C | 38% | 1017.2 hPa | 0 mm | - | 526 W/m² | - |
| 1788529393 | 28.89° C | 40% | 1017.2 hPa | 0 mm | - | 446 W/m² | - |
| 1788528793 | 28.89° C | 40% | 1017.3 hPa | 0 mm | - | 248 W/m² | - |
| 1788528193 | 28.89° C | 40% | 1017.4 hPa | 0 mm | - | 584 W/m² | - |
| 1788527593 | 28.89° C | 39% | 1017.6 hPa | 0 mm | - | 569 W/m² | - |
| 1788526993 | 28.33° C | 39% | 1017.5 hPa | 0 mm | - | 597 W/m² | - |
| 1788526393 | 28.33° C | 40% | 1017.8 hPa | 0 mm | - | 634 W/m² | - |
| 1788525793 | 28.33° C | 42% | 1018 hPa | 0 mm | - | 649 W/m² | - |
| 1788525193 | 27.78° C | 41% | 1018.2 hPa | 0 mm | - | 662 W/m² | - |
| 1788524593 | 27.78° C | 41% | 1018.5 hPa | 0 mm | - | 672 W/m² | - |
| 1788523993 | 27.78° C | 42% | 1018.6 hPa | 0 mm | - | 684 W/m² | - |
| 1788523393 | 27.22° C | 42% | 1018.7 hPa | 0 mm | - | 692 W/m² | - |
| 1788522793 | 27.22° C | 45% | 1018.9 hPa | 0 mm | - | 701 W/m² | - |
| 1788522193 | 26.67° C | 44% | 1018.8 hPa | 0 mm | - | 708 W/m² | - |
| 1788521593 | 26.67° C | 46% | 1019 hPa | 0 mm | - | 712 W/m² | - |
* Rain latest hour (hover to see other rain measurements)
** Current wind speed in m/s (hover to see current wind gust speed)